Location: Zagreb
(45.8150°N, 15.9819°E)
Time: 13:28:07
(UTC+02:00)

STARLINK-1658 - Pass Details

Date: 21 September 2020
Orbit: 379 x 380 km, 53.0° (Epoch: 20 October)

Event Time Altitude Azimuth Distance (km) Brightness Sun altitude
Exits shadow 04:50:43 25° 342° (NNW) 831 4.5 -19.7°
Maximum altitude 04:50:54 25° 348° (NNW) 827 4.6 -19.7°
Drops below altitude 10° 04:53:34 10° 46° (NE) 1,405 6.7 -19.3°
Sets 04:55:52 0° 61° (ENE) 2,260 8.4 -18.9°
